Location: New Frontier Mobile Home Park
(32.8448°N, 116.9675°W)
Time: 22:52:56
(UTC+00:00)

Landsat 5 - Pass Details

Date: 14 July 2020
Orbit: 528 x 654 km, 98.2° (Epoch: 05 August)

Event Time Altitude Azimuth Distance (km) Brightness Sun altitude
Exits shadow 11:07:04 - 153° (SSE) 2,610 6.6 -18.7°
Reaches altitude 10° 11:08:57 10° 147° (SSE) 1,831 5.9 -18.4°
Maximum altitude 11:12:43 45° 75° (ENE) 745 4.4 -17.8°
Drops below altitude 10° 11:16:25 10° 2° (N) 1,795 6.5 -17.2°
Sets 11:18:34 0° 356° (N) 2,681 7.4 -16.9°
